Погода в Щербакуле

Погода в Щербакуле : погода сейчас, прогноз погоды и архив. Всё, что Вы хотите узнать о погоде в Щербакуле!

Хотите узнать прогноз погоды в Щербакуле? Тогда Вам сюда: Погода в Щербакуле

Поиск расширенной информации на нашем сайте:

Другие новости

Новости СМИ2

Главная страница сайта

Новости сайта

03.07.2017

Напоминаем, что на нашем специализированном сайте Метеоцентр.Азия вы можете получить высокодетализированные автоматические прогнозы погоды по пунктам России, СНГ и мира в авиационном формате (включающие направление и скорость ветра, видимость, явления погоды, количество и форму облачности, нижнюю и верхнюю границу облачности).


Погода в Щербакуле - сегодня

Время (UTC), дата Ветер
(°,м/с) 
Видим.   Явления Облачность Т
(°С)
Тd
(°С)
f(%) Тe
(°С)
Pmin
(гПа)
dP
(гПа)
Po
(мм)
O2
(г/м3)
Тmin Tmax R s Состояние
почвы
03 13.08.18 250 (З) 20000 м    3/0 верхняя 
[Ci fib]
+14.2 +7.7 65 +14  1014.4  1.2  751  286  +3.6        влажная 
09 13.08.18 280 (З) 20000 м    3/0 средняя, верхняя 
[Ac cast|Cc]
+21.9 +7.9 41 +22  1014.3  751  279           
15 13.08.18 190 (Ю) 20000 м    9/0 средняя 
[Ac trans]
+18.5 +11.4 63 +22  1015.1  0.6  751  281    +22.4       
21 13.08.18 170 (Ю) 20000 м    ясно 
+11.7 +8.4 80 +12  1016.6  0.5  752  289           
03 14.08.18 190 (Ю) 20000 м    3/0 средняя, верхняя 
[Ac trans|Ci fib]
+18.1 +9.8 58 +20  1017.2  0.6  753  283  +11.2         
09 14.08.18 180 (Ю) 20000 м    ясно 
+26.9 +11.2 38 +30  1015.7  -0.5  752  274           
15 14.08.18 140 (ЮВ) 20000 м    3/0 верхняя 
[Ci fib]
+18.3 +12.9 71 +24  1014.4  -0.5  751  281    +27.6       
21 14.08.18 120 (ЮВ) 20000 м    ясно 
+13.8 +10.1 78 +15  1014  -0.9  750  286           
03 15.08.18 140 (ЮВ) 20000 м    9/0 верхняя 
[Ci]
+19.2 +10.2 56 +21  1012.2  -0.7  749  280  +13.1         
09 15.08.18 170 (Ю) 20000 м    9/0 средняя, верхняя 
[Ac trans|Cs]
+28.5 +10.2 32 +30  1009.3  -1.1  747  271           
15 15.08.18 130 (ЮВ) 20000 м    10/8 500 м кучево-дожд., средняя 
[Cb cap|As op]
+20.6 +12.8 61 +26  1007.6  -0.8  746  277    +29       
21 15.08.18 270 (З) 20000 м    3/0 верхняя 
[Ci fib]
+15.8 +10.7 72 +19  1006.7  -0.2  745  282           
03 16.08.18 300 (СЗ) 20000 м    6/0 средняя, верхняя 
[Ac cast|Ci sp]
+18.3 +14.7 80 +27  1008.1  0.8  746  279  +13.2         
09 16.08.18 280 (З) 20000 м    9/3 600 м верхняя 
[Cu med, cong|Cs]
+23.4 +13.1 52 +29  1009.3  747  275           
15 16.08.18 310 (СЗ) 20000 м    6/3 600 м верхняя 
[Sc diur, vesp|Ci fib]
+19.1 +13.9 72 +27  1009.7  0.4  747  279    +24.6       
21 16.08.18 320 (СЗ) 20000 м    ясно 
+13.5 +11 85 +17  1010.3  -0.3  748  285           
03 17.08.18 300 (СЗ) 4000 м  дымка  10/10 330 м 
[St]
+16.3 +14.9 91 +26  1011.8  1.1  749  282  +13         
09 17.08.18 320 (СЗ) 20000 м    8/3 1000 м верхняя 
[Cu hum|Cc]
+23.7 +10.5 43 +26  1010.4  -0.8  748  275           
21 17.08.18 240 (ЮЗ) 20000 м    ясно 
+15.8 +13.1 84 +23  1008  0.1  746  282           
03 18.08.18 310 (СЗ) 20000 м    6/0 средняя, верхняя 
[Ac lent|Cs]
+17.3 +11.4 68 +21  1009.9  1.2  747  281  +14.4         
09 18.08.18 280 (З) 20000 м    10/0 верхняя 
[Cs]
+22 +9.2 44 +22  1010  -0.3  748  277           
15 18.08.18 330 (СЗ) 20000 м    10/0 средняя, верхняя 
[Ac trans|Cs]
+17 +9.4 61 +17  1011.4  1.1  749  282    +22.3       
21 18.08.18 310 (СЗ) 20000 м  зарница  3/1 300 м кучево-дожд., верхняя 
[Cb cap|Ci fib]
+9.6 +7 84 +10  1011.8  -0.5  749  290           
03 19.08.18 020 (С) 4000 м  слаб. ливневой дождь  10/10 270 м кучево-дожд. 
[Cb cap]
+12.3 +10.7 90 +15  1012.1  -0.5  749  287  +9       
09 19.08.18 360 (С) 20000 м    10/10 930 м 
[Sc]
+15.8 +10.1 69 +17  1011.3  -0.5  748  283           
Время (UTC), дата Ветер
(°,м/с) 
Видим.   Явления Облачность Т
(°С)
Тd
(°С)
f(%) Тe
(°С)
Pmin
(гПа)
dP
(гПа)
Po
(мм)
O2
(г/м3)
Тmin Tmax R s Состояние
почвы

Для получения пояснительной информации подведите курсор к названию столбца.

ПОГОДА в Щербакуле - архив

Всё, что Вы хотите узнать о погоде в Щербакуле - удобно и подробно!

Выберите нужную дату (начиная с 1 января 2015* года) и нажмите кнопку "Найти".
Будут отображены архивные сводки погоды по пункту Щербакуль, начиная с указанной даты.


Отображать данные в формате CSV (для использования в таблицах Excel)


Внимание! Наш архив погоды предназначен исключительно для личного некоммерческого использования в познавательных целях. Если Вам необходимы официальные справки о состоянии погоды (для производственных, юридических, коммерческих и т.п. целей), обращайтесь в органы Росгидромета.

*Примечание: данная дата относится к архиву по метеостанциям СССР (Россия, СНГ, Балтия).
Архив по метеостанциям Зарубежной Европы и Азии (кроме Китая) хранится 10 дней, по другим регионам земного шара (Китай, Африка, Америка, Австралия, Океания) - 1 день.

Щербакуль - район местоположения метеостанции


Название, широта, долгота, высота метеостанции:
Щербакуль 54.6°ш. 72.4°д. 115 м над ур. моря [Российская Федерация]

Дополнительная информация

В oтличие oт бoльшинства пoгoдных сайтoв мы публикуем пoдрoбную метеoинфoрмацию в детальнoм прoфессиoнальнoм фoрмате.

Характеристики температуры и влажнoсти вoздуха измеряются на высoте 2 м в тени вдали oт зданий и деревьев.
Скoрoсть ветра измеряется на высoте 10 м (на урoвне рoста челoвека скoрoсть ветра ниже в 1.5-2 раза). Если метеoстанция нахoдится в гoрoде или в лесу, тo скoрoсть ветра занижена на 2-4 м/с пo сравнению с oткрытым местoм. Скoрoсть ветра над акватoриями крупных рек и oзёр, а также на вершинах хoлмoв на 2-5 м/с выше, чем в oбычных услoвиях.
Атмoсфернoе давление в разных тoчках местнoсти мoжет значительнo oтличаться oт давления на метеoстанции, в зависимoсти oт услoвий рельефа (при пoдъёме на 10 м давление пoнижается примернo на 1 мм рт.ст.).